TimeCST,TemperatureF,Dew PointF,Humidity,Sea Level PressureIn,VisibilityMPH,Wind Direction,Wind SpeedMPH,Gust SpeedMPH,PrecipitationIn,Events,Conditions,WindDirDegrees,DateUTC
12:53 AM,28.0,23.0,81,30.38,10.0,SSW,5.8,-,N/A,,Clear,210,2013-01-17 06:53:00
1:53 AM,28.0,23.0,81,30.41,10.0,West,8.1,-,N/A,,Clear,280,2013-01-17 07:53:00
2:53 AM,27.0,21.9,81,30.43,10.0,West,8.1,-,N/A,,Clear,260,2013-01-17 08:53:00
3:53 AM,26.1,21.0,81,30.43,10.0,WSW,9.2,-,N/A,,Clear,250,2013-01-17 09:53:00
4:53 AM,27.0,21.0,78,30.45,10.0,WSW,8.1,-,N/A,,Clear,250,2013-01-17 10:53:00
5:53 AM,24.8,19.4,80,30.39,10.0,WSW,9.2,-,N/A,,Clear,250,2013-01-17 11:53:00
6:53 AM,24.1,19.0,81,30.49,10.0,WSW,8.1,-,N/A,,Clear,240,2013-01-17 12:53:00
7:53 AM,24.1,18.0,77,30.51,10.0,WSW,5.8,-,N/A,,Clear,240,2013-01-17 13:53:00
8:53 AM,26.1,19.0,75,30.53,10.0,West,8.1,-,N/A,,Clear,260,2013-01-17 14:53:00
9:53 AM,30.0,21.0,69,30.55,10.0,West,12.7,-,N/A,,Clear,260,2013-01-17 15:53:00
10:53 AM,33.1,23.0,66,30.55,10.0,West,11.5,-,N/A,,Clear,270,2013-01-17 16:53:00
11:53 AM,37.9,24.1,57,30.52,10.0,West,11.5,-,N/A,,Clear,280,2013-01-17 17:53:00
12:53 PM,39.9,25.0,55,30.48,10.0,West,8.1,-,N/A,,Clear,280,2013-01-17 18:53:00
1:53 PM,43.0,26.1,51,30.45,10.0,West,6.9,-,N/A,,Clear,260,2013-01-17 19:53:00
2:53 PM,45.0,27.0,49,30.43,10.0,West,6.9,-,N/A,,Clear,270,2013-01-17 20:53:00
3:53 PM,46.0,28.0,50,30.42,10.0,West,3.5,-,N/A,,Clear,270,2013-01-17 21:53:00
4:53 PM,46.0,25.0,44,30.40,10.0,South,3.5,-,N/A,,Clear,180,2013-01-17 22:53:00
5:53 PM,45.0,24.1,44,30.40,10.0,SSW,3.5,-,N/A,,Clear,210,2013-01-17 23:53:00
6:53 PM,39.9,24.1,53,30.40,10.0,SSW,4.6,-,N/A,,Clear,200,2013-01-18 00:53:00
7:53 PM,37.9,24.1,57,30.39,10.0,SSW,3.5,-,N/A,,Clear,200,2013-01-18 01:53:00
8:53 PM,34.0,23.0,64,30.38,10.0,SSW,4.6,-,N/A,,Clear,210,2013-01-18 02:53:00
9:53 PM,30.9,21.9,69,30.36,10.0,WSW,8.1,-,N/A,,Clear,240,2013-01-18 03:53:00
10:53 PM,30.9,21.9,69,30.32,10.0,SW,5.8,-,N/A,,Clear,220,2013-01-18 04:53:00
11:53 PM,34.0,23.0,64,30.29,10.0,WSW,13.8,-,N/A,,Clear,240,2013-01-18 05:53:00